Hourly Data Report for October 01, 2017

All times are specified in Local Standard Time (LST). Add 1 hour to adjust for Daylight Saving Time where and when it is observed.

MOOSONEE
ONTARIO

51°17'28.000" N
80°36'28.000" W
9.10 m
6075420
71398
YMO

Download Data

Hourly Data (October 2017)
Hourly Data Report for October 1, 2017
Temp Definition
°C
Dew Point Temp Definition
°C
Rel Hum Definition
%
Wind Dir Definition
10's deg

Wind Spd Definition
km/h
Visibility Definition
km
Stn Press Definition
kPa
Hmdx Definition


Wind Chill Definition


Weather Definition


TIME
00:00 Legend Double Dagger 9.7 6.4 80 23 18 16.1 101.87     LegendNANA
01:00 Legend Double Dagger 8.8 6.1 83 24 21 16.1 101.88     LegendNANA
02:00 Legend Double Dagger 8.6 5.9 83 24 22 16.1 101.87     LegendNANA
03:00 Legend Double Dagger 7.8 5.6 86 23 18 16.1 101.85     LegendNANA
04:00 Legend Double Dagger 7.1 5.4 89 24 18 16.1 101.85     LegendNANA
05:00 Legend Double Dagger 6.6 5.8 94 24 18 16.1 101.86     LegendNANA
06:00 Legend Double Dagger 6.1 5.8 98 23 15 16.1 101.88     LegendNANA
07:00 Legend Double Dagger 6.1 5.8 98 24 13 16.1 101.93     LegendNANA
08:00 Legend Double Dagger 7.9 6.2 89 25 11 16.1 101.98     LegendNANA
09:00 Legend Double Dagger 10.3 6.9 79 25 15 16.1 102.01     LegendNANA
10:00 Legend Double Dagger 12.7 7.6 71 29 11 16.1 102.02     LegendNANA
11:00 Legend Double Dagger 14.1 7.8 66 LegendMM 8 16.1 102.04     LegendNANA
12:00 Legend Double Dagger 15.1 7.9 62 15 9 16.1 102.04     LegendNANA
13:00 Legend Double Dagger 16.3 8.3 59 18 11 16.1 102.05     LegendNANA
14:00 Legend Double Dagger 16.4 9.5 63 10 13 16.1 102.04     LegendNANA
15:00 Legend Double Dagger 13.2 9.3 77 8 24 16.1 102.07     LegendNANA
16:00 Legend Double Dagger 12.4 9.4 82 8 21 16.1 102.12     LegendNANA
17:00 Legend Double Dagger 11.4 8.3 81 6 15 16.1 102.16     LegendNANA
18:00 Legend Double Dagger 9.3 8.7 96 5 8 16.1 102.22     LegendNANA
19:00 Legend Double Dagger 8.7 8.6 99 5 11 16.1 102.27     LegendNANA
20:00 Legend Double Dagger 9.0 8.9 99 6 13 16.1 102.31     LegendNANA
21:00 Legend Double Dagger 9.3 9.2 99 8 18 16.1 102.35     LegendNANA
22:00 Legend Double Dagger 8.8 8.8 100 9 15 16.1 102.38     LegendNANA
23:00 Legend Double Dagger 8.2 8.2 100 9 15 16.1 102.41     LegendNANA

Notes on Data Quality.

Legend

  • E = Estimated
  • M = Missing
  • NA = Not Available
  • ‡ = Partner data that is not subject to review by the National Climate Archives
Date modified: